"Pseudo-MPEC" for P11DAVj

Created 2023 Apr 1 15:22:06 UT using Find_Orb

Click here for an explanation of pseudo-MPECs

 
 Astrometry: 
     P11DAVj* C2023 03 18h$A#,uQ1AstrometryA]:xKDredacted;HvP;@/L/V-'x^3L;UP6F51
     P11DAVj  C2023 03 18Y610H,G^sa,I7HCFNR[3UyrB%gxVW1FhAnNB1foLrrctodHHf)5uF51
     P11DAVj  C2023 03 18]abNr_M?'HgUDRAn$nfhB\Rk^rNsn152N=(F#/?*1-:/_5#d)j,LF51
     P11DAVj  C2023 03 18^qd0clicky7$1j_DL_G5%+2E0q535WAD7hereYforo!jomHZMmsqF51
     P11DAVj  C2023 03 18sXrc7XcI#Mul;deL`/d?Y?c(ffb:Y5e,G^o_p3bM:7@/+\bnF[M?F52
     P11DAVj  C2023 03 18E/,1KD`e*.#Gsg/G[Ggk#L'?@'HFyW,dexplanation),.ir9QumF52

Station data:
(F51) Pan-STARRS 1, Haleakala  (N20.707234 W156.255910)  US/Hawaii.
   Observers J. Bulger, T. Lowe, A. Schultz, M. Willman. Measurers K.
   Chambers, S. Chastel, T. de Boer, L. Denneau, J. Fairlamb, H. Flewelling,
   M. Huber, C.-C. Lin, E. Magnier, Y. Ramanjooloo, R. Wainscoat, R. Weryk.
   1.8-m Ritchey-Chrétien + CCD.
(F52) Pan-STARRS 2, Haleakala  (N20.707382 W156.255910)  US/Hawaii.
   Observers J. Bulger, T. Dukes, T. Lowe, A. Schultz, M. Willman. Measurers
   K. Chambers, S. Chastel, T. de Boer, L. Denneau, J. Fairlamb, H.
   Flewelling, M. Huber, C.-C. Lin, E. Magnier, Y. Ramanjooloo, R. Wainscoat,
   R. Weryk. 1.8-m Ritchey-Chrétien + CCD.

Orbital elements:  P11DAVj
   Perihelion 2023 Jul 19.79255 +/- 157 TT = 19:01:16 (JD 2460145.29255)
Epoch 2023 Mar 18.0 TT = JDT 2460021.5   Earth MOID: 0.1776   Ve: 0.0453
M 254.74593051 +/- 100              (J2000 ecliptic)             AutoNEOCP
n   0.85024558 +/- 0.339            Peri.  182.48554 +/- 34
a   1.10350200 +/- 0.294            Node   125.19937 +/- 39
e   0.3024520 +/- 0.193             Incl.   10.30283 +/- 27
P   1.16/423.40d           H 22.84  G  0.15   U 12.0  SR
q 0.76974556 +/- 0.329    Q 1.43725844 +/- 2.19
From 6 observations 2023 Mar. 18 (2.3 hr); mean residual 0".06
Residuals in arcseconds: 
230318 F51  .03+  .02+    230318 F51  .02+  .05+    230318 F52  .06+  .09-    
230318 F51  .04+  .07-    230318 F51  .13-  .02+    230318 F52  .02-  .08+    

Ephemerides (geocentric):
Date (UTC) HH   RA             Dec           delta  r     elong  mag " sig PA
---- --------  ------------   ------------  ------ ------ -----  --- --------
2023 04 01 15  10 54 33.547   +44 54 39.08  .32177 1.2132 125.1 22.5 308'  33
2023 04 01 16  10 54 26.320   +44 55 34.72  .32179 1.2130 125.1 22.5 311'  33
2023 04 01 17  10 54 19.096   +44 56 30.22  .32181 1.2128 125.0 22.5 315'  33
2023 04 01 18  10 54 11.875   +44 57 25.59  .32183 1.2127 125.0 22.5 318'  32
2023 04 01 19  10 54 04.658   +44 58 20.83  .32185 1.2125 124.9 22.5 321'  32
2023 04 01 20  10 53 57.444   +44 59 15.93  .32188 1.2123 124.9 22.5 324'  32
2023 04 01 21  10 53 50.234   +45 00 10.89  .32190 1.2121 124.8 22.5 328'  32
2023 04 01 22  10 53 43.027   +45 01 05.72  .32192 1.2119 124.7 22.5 331'  32
2023 04 01 23  10 53 35.824   +45 02 00.42  .32195 1.2118 124.7 22.5 334'  31
2023 04 02 00  10 53 28.624   +45 02 54.98  .32197 1.2116 124.6 22.5 338'  31
2023 04 02 01  10 53 21.427   +45 03 49.41  .32199 1.2114 124.6 22.5 341'  31
2023 04 02 02  10 53 14.234   +45 04 43.70  .32201 1.2112 124.5 22.5 345'  31
2023 04 02 03  10 53 07.045   +45 05 37.86  .32204 1.2111 124.5 22.5 348'  31
2023 04 02 04  10 52 59.859   +45 06 31.89  .32206 1.2109 124.4 22.5 352'  30
2023 04 02 05  10 52 52.677   +45 07 25.78  .32208 1.2107 124.4 22.5 355'  30
2023 04 02 06  10 52 45.498   +45 08 19.54  .32211 1.2105 124.3 22.5 359'  30
2023 04 02 07  10 52 38.323   +45 09 13.16  .32213 1.2103 124.3 22.5 362'  30
2023 04 02 08  10 52 31.152   +45 10 06.66  .32216 1.2102 124.2 22.5 366'  29
2023 04 02 09  10 52 23.984   +45 11 00.01  .32218 1.2100 124.2 22.5 370'  29
2023 04 02 10  10 52 16.821   +45 11 53.24  .32220 1.2098 124.1 22.5 374'  29
2023 04 02 11  10 52 09.660   +45 12 46.33  .32223 1.2096 124.0 22.5 377'  29
2023 04 02 12  10 52 02.504   +45 13 39.29  .32225 1.2095 124.0 22.5 381'  28
2023 04 02 13  10 51 55.352   +45 14 32.11  .32228 1.2093 123.9 22.5 385'  28
2023 04 02 14  10 51 48.203   +45 15 24.81  .32230 1.2091 123.9 22.5 389'  28
2023 04 02 15  10 51 41.058   +45 16 17.37  .32232 1.2089 123.8 22.5 393'  28
2023 04 02 16  10 51 33.917   +45 17 09.79  .32235 1.2087 123.8 22.5 397'  27
2023 04 02 17  10 51 26.780   +45 18 02.09  .32237 1.2086 123.7 22.5 401'  27
2023 04 02 18  10 51 19.646   +45 18 54.25  .32240 1.2084 123.7 22.5 405'  27
2023 04 02 19  10 51 12.517   +45 19 46.28  .32242 1.2082 123.6 22.5 409'  27
2023 04 02 20  10 51 05.392   +45 20 38.18  .32245 1.2080 123.6 22.5 413'  26
2023 04 02 21  10 50 58.270   +45 21 29.95  .32247 1.2078 123.5 22.5 417'  26
2023 04 02 22  10 50 51.153   +45 22 21.58  .32250 1.2077 123.5 22.5 422'  26
2023 04 02 23  10 50 44.039   +45 23 13.08  .32252 1.2075 123.4 22.5 426'  26
2023 04 03 00  10 50 36.930   +45 24 04.45  .32255 1.2073 123.3 22.5 430'  25
2023 04 03 01  10 50 29.824   +45 24 55.69  .32257 1.2071 123.3 22.5 434'  25
2023 04 03 02  10 50 22.723   +45 25 46.80  .32260 1.2069 123.2 22.5 438'  25
2023 04 03 03  10 50 15.626   +45 26 37.77  .32262 1.2068 123.2 22.5 443'  25
2023 04 03 04  10 50 08.533   +45 27 28.62  .32265 1.2066 123.1 22.5 447'  24
2023 04 03 05  10 50 01.444   +45 28 19.33  .32267 1.2064 123.1 22.5 452'  24
2023 04 03 06  10 49 54.359   +45 29 09.91  .32270 1.2062 123.0 22.5 456'  24
2023 04 03 07  10 49 47.279   +45 30 00.37  .32273 1.2061 123.0 22.5 460'  23
2023 04 03 08  10 49 40.202   +45 30 50.69  .32275 1.2059 122.9 22.5 465'  23
2023 04 03 09  10 49 33.130   +45 31 40.88  .32278 1.2057 122.9 22.5 469'  23
2023 04 03 10  10 49 26.062   +45 32 30.94  .32280 1.2055 122.8 22.5 474'  23
2023 04 03 11  10 49 18.998   +45 33 20.86  .32283 1.2053 122.8 22.5 478'  22
2023 04 03 12  10 49 11.939   +45 34 10.66  .32286 1.2052 122.7 22.5 483'  22
2023 04 03 13  10 49 04.884   +45 35 00.33  .32288 1.2050 122.7 22.5 487'  22
2023 04 03 14  10 48 57.833   +45 35 49.87  .32291 1.2048 122.6 22.5 492'  22